Content
SEND FEEDBACK

Daily
Averages
Monthly
Summary
Malaysia

KOTA KINABALU, MALAYSIA


Home > Asia > Malaysia
Elevation: 10 feet     Latitude: 05 55N     Longitude: 116 03E

WEATHER
 
SELECT A DAY
Number of Records: 269,987;   Date Range: 8/9/96 - 8/31/14
 
SHARE

PRINT THIS DATA

[ ← Previous Day ]
WEATHER ALMANAC - JANUARY 31, 2013
[ Next Day → ]
[ °C ]   °F
Weather ElementAverageHighLow
Temperature81.7 °F89.6 °F (12:30 pm)77 °F (4:00 am)
Dewpoint75.1 °F77 °F (12:00 pm)73.4 °F (4:00 am)
Humidity80.4 %94 % (11:00 pm)58 % (2:00 pm)
Barometer29.89 in29.95 in (10:00 pm)29.83 in (2:30 pm)
Wind Speed3.8 mph9.2 mph (4:30 pm)
Weather ElementAverage
Visibility7 mi
Wind DirectionSE (139.6 °)

Weather ElementTotal
Precipitation---
Cooling Degree Days18.3 (Base 65)
Growing Degree Days33.3 (Base 50)
Averaged from 55 records on January 31, 2013
WEATHER CONDITIONS BREAKOUT
WIND DIRECTION BREAKOUT
WEATHER BY HOUR - JANUARY 31, 2013
[ °C ]   °F
Local TimeTemperatureDewpointHumidityBarometerVisibilityWind DirectionWind SpeedGust SpeedPrecipitationEventsConditions
12:30 AM78.8 °F75.2 °F89 %29.92 in6.2 miEast (100°)3.5 mphMostly Cloudy
1:00 AM78.8 °F75.2 °F89 %29.92 in6.2 miEast (100°)3.5 mphMostly Cloudy
1:30 AM78.8 °F75.2 °F89 %29.92 in6.2 miESE (110°)3.5 mphMostly Cloudy
2:00 AM79.0 °F74.0 °F82 %29.91 in9.0 miESE (110°)2.3 mphHaze
2:00 AM78.8 °F75.2 °F89 %29.89 in6.2 miESE (110°)2.3 mphMostly Cloudy
2:30 AM78.8 °F75.2 °F89 %29.89 in6.2 miESE (110°)2.3 mphMostly Cloudy
3:00 AM78.8 °F75.2 °F89 %29.89 in6.2 miESE (120°)2.3 mphMostly Cloudy
3:30 AM78.8 °F75.2 °F89 %29.89 in6.2 miESE (120°)3.5 mphMostly Cloudy
4:00 AM77.0 °F73.4 °F89 %29.89 in6.2 miESE (110°)3.5 mphMostly Cloudy
4:30 AM77.0 °F73.4 °F89 %29.89 in6.2 miESE (120°)1.2 mphMostly Cloudy
5:00 AM77.0 °F74.0 °F88 %29.91 in11.0 miNNE (30°)2.3 mphHaze
5:00 AM77.0 °F73.4 °F89 %29.89 in6.2 miNNE (30°)2.3 mphMostly Cloudy
5:30 AM77.0 °F73.4 °F89 %29.89 in6.2 miSE (130°)2.3 mphMostly Cloudy
6:00 AM77.0 °F73.4 °F89 %29.89 in6.2 miEast (100°)4.6 mphMostly Cloudy
6:30 AM77.0 °F73.4 °F89 %29.92 in6.2 miESE (110°)2.3 mphMostly Cloudy
7:00 AM77.0 °F73.4 °F89 %29.89 in6.2 miSE (140°)2.3 mphMostly Cloudy
7:30 AM78.8 °F75.2 °F89 %29.89 in6.2 miEast (100°)3.5 mphRainLight Rain
8:00 AM79.0 °F74.0 °F82 %29.91 in11.0 miEast (80°)3.5 mphRainLight Rain
8:00 AM78.8 °F75.2 °F89 %29.89 in6.2 miEast (80°)3.5 mphRainLight Rain
8:30 AM80.6 °F75.2 °F84 %29.92 in6.2 miENE (70°)3.5 mphRainLight Rain
9:00 AM82.4 °F73.4 °F74 %29.92 in6.2 miNE (50°)4.6 mphMostly Cloudy
9:30 AM82.4 °F73.4 °F74 %29.92 in6.2 miNorth (10°)3.5 mphMostly Cloudy
10:00 AM84.2 °F73.4 °F70 %29.92 in6.2 miNorth (360°)3.5 mphMostly Cloudy
10:30 AM84.2 °F73.4 °F70 %29.92 in6.2 miNorth (10°)3.5 mphMostly Cloudy
11:00 AM87.0 °F76.0 °F61 %29.94 in14.0 miNW (320°)4.6 mphHaze
11:00 AM87.8 °F75.2 °F66 %29.92 in6.2 miNW (320°)4.6 mphMostly Cloudy
11:30 AM87.8 °F75.2 °F66 %29.92 in6.2 miNW (320°)3.5 mphMostly Cloudy
12:00 PM87.8 °F77.0 °F70 %29.89 in6.2 miNNW (340°)4.6 mphMostly Cloudy
12:30 PM89.6 °F75.2 °F62 %29.89 in6.2 miWest (280°)2.3 mphMostly Cloudy
1:00 PM89.6 °F75.2 °F62 %29.89 in6.2 miNW (310°)3.5 mphMostly Cloudy
1:30 PM89.6 °F75.2 °F62 %29.86 in6.2 miWNW (290°)3.5 mphMostly Cloudy
2:00 PM89.0 °F76.0 °F58 %29.86 in14.0 miNW (310°)3.5 mphHaze
2:00 PM89.6 °F77.0 °F66 %29.86 in6.2 miNW (310°)3.5 mphMostly Cloudy
2:30 PM86.0 °F75.2 °F70 %29.83 in6.2 miNorth (360°)5.8 mphMostly Cloudy
3:00 PM89.6 °F77.0 °F66 %29.83 in6.2 miNNE (20°)5.8 mphMostly Cloudy
3:30 PM84.2 °F75.2 °F74 %29.83 in6.2 miNorth (10°)5.8 mphMostly Cloudy
4:00 PM84.2 °F75.2 °F74 %29.83 in6.2 miNorth (360°)5.8 mphMostly Cloudy
4:30 PM82.4 °F75.2 °F79 %29.83 in6.2 miNNE (20°)9.2 mphMostly Cloudy
5:00 PM83.0 °F75.0 °F70 %29.86 in14.0 miNNE (20°)6.9 mphHaze
5:00 PM82.4 °F75.2 °F79 %29.83 in6.2 miNNE (20°)6.9 mphMostly Cloudy
5:30 PM82.4 °F75.2 °F79 %29.86 in6.2 miNorth (10°)4.6 mphMostly Cloudy
6:00 PM80.6 °F75.2 °F84 %29.86 in6.2 miNorth (10°)5.8 mphMostly Cloudy
6:30 PM80.6 °F75.2 °F84 %29.89 in6.2 miNNE (20°)5.8 mphMostly Cloudy
7:00 PM80.6 °F75.2 °F84 %29.89 in6.2 miNNE (20°)3.5 mphMostly Cloudy
7:30 PM80.6 °F75.2 °F84 %29.89 in6.2 miNorth (10°)4.6 mphMostly Cloudy
8:00 PM80.0 °F76.0 °F85 %29.89 in9.0 miWNW (300°)1.2 mphHaze
8:00 PM80.6 °F77.0 °F89 %29.89 in6.2 miWNW (300°)1.2 mphMostly Cloudy
8:30 PM80.6 °F77.0 °F89 %29.89 in6.2 miNorth (360°)3.5 mphMostly Cloudy
9:00 PM80.6 °F77.0 °F89 %29.92 in6.2 miENE (70°)4.6 mphMostly Cloudy
9:30 PM80.6 °F75.2 °F84 %29.92 in6.2 miNE (40°)4.6 mphMostly Cloudy
10:00 PM80.6 °F75.2 °F84 %29.95 in6.2 miNE (50°)4.6 mphMostly Cloudy
10:30 PM80.6 °F75.2 °F84 %29.95 in6.2 miEast (80°)3.5 mphMostly Cloudy
11:00 PM79.0 °F76.0 °F88 %29.94 in9.0 miSE (130°)2.3 mphHaze
11:00 PM78.8 °F77.0 °F94 %29.92 in6.2 miSE (130°)2.3 mphMostly Cloudy
11:30 PM78.8 °F75.2 °F89 %29.92 in6.2 miSE (130°)2.3 mphMostly Cloudy
Hourly data recorded from WBKK, located miles away from Kota Kinabalu, Malaysia







STORIES FROM OUR PARTNERS